Satellite: METEOR-M Catalog number: 35865 Epoch time: 11209.74072731 Element set: 588 Inclination: 098.7030 deg RA of node: 264.3249 deg Eccentricity: 0.0001811 Arg of perigee: 290.2074 deg Mean anomaly: 069.8878 deg Mean motion: 14.21840660 rev/day Decay rate: 1.76e-06 rev/day^2 Epoch rev: 9649 Checksum: 314
Satellite: RS-38 Catalog number: 35869 Epoch time: 11209.66529945 Element set: 580 Inclination: 098.7001 deg RA of node: 264.2842 deg Eccentricity: 0.0003734 Arg of perigee: 277.3196 deg Mean anomaly: 082.7529 deg Mean motion: 14.22017303 rev/day Decay rate: 1.77e-06 rev/day^2 Epoch rev: 9649 Checksum: 328
/EX
participants (1)
-
Ray Hoad